Volver al catálogo

STARLINK-35569

ActivoComunicacionesVLEO
NORAD 66471·PAYLOAD·🇺🇸 United States

Lanzado Nov 15, 2025 desde Cape Canaveral Space Force Station

Loading…

Próximos Pases (próximas 24 horas)

TLE

ActualizadoSource: CelesTrak SupGP

Época: Sep 15, 2026, 03:16 UTC

1 66471C 25262R   26258.13659722  .00028387  00000+0  10281-2 0  2588
2 66471  43.0002 306.1705 0001430 260.3015   6.2231 15.27566206    17

Sigue STARLINK-35569 en tiempo real con AllMySat

Download on the App Store